Theta_e
274 274 274 274 274 274 275 274 275 274 274 274 274 274 273 273 271 268 268 271 270 271 274 273 273 274 274 274 275 274 274 276 278 275 275 274 274 278 283 286 286 287 287 287 287 287 288 288 288 289 289 290 290 290 291 291 291 292 292 293 294 295 295 295 296 296 296 297 297 298 298 298 299 300
274 274 274 274 274 274 274 274 274 273 273 274 274 274 273 273 270 271 270 270 272 271 273 273 272 273 273 274 274 275 274 277 277 275 274 274 274 280 282 282 283 284 287 287 286 288 288 288 288 288 288 289 290 290 290 290 290 291 292 293 293 293 294 294 295 295 294 295 296 296 297 297 298 298
274 273 273 273 273 273 273 273 273 273 273 273 273 273 273 274 272 271 271 268 271 272 270 272 273 273 272 274 273 274 274 276 276 274 273 273 277 279 277 279 281 283 284 284 285 287 287 287 288 288 288 289 289 289 289 289 290 290 291 292 292 293 293 293 292 293 293 294 294 295 296 296 297 298
273 273 273 273 273 273 273 272 273 272 273 273 273 273 273 272 272 272 271 269 270 273 272 272 272 273 272 273 272 273 273 275 276 273 273 274 277 274 274 277 279 281 282 284 285 286 287 287 287 287 287 287 288 288 288 289 289 289 289 291 291 291 291 290 291 291 292 292 293 293 293 294 295 296
273 273 272 272 272 272 272 272 272 272 272 272 273 273 272 272 271 271 269 268 268 271 272 271 272 272 273 272 273 272 272 272 273 275 273 273 273 273 273 274 277 279 281 283 284 285 286 287 287 287 287 287 287 287 288 288 288 288 289 289 289 290 290 290 290 290 290 291 291 292 293 293 294 295
273 272 271 272 271 272 271 271 271 271 271 271 270 271 271 271 271 271 270 268 268 268 271 271 272 271 273 271 273 272 271 272 273 272 273 273 273 273 273 273 274 279 281 282 284 285 286 287 287 287 286 287 287 288 288 287 287 288 288 288 287 288 288 288 288 289 289 290 291 291 292 293 294 294
271 271 271 271 271 271 271 271 271 271 271 271 270 270 271 270 271 271 271 269 267 268 269 271 270 271 272 271 271 272 272 273 273 272 272 273 274 274 274 274 274 278 281 283 284 285 285 285 286 286 286 286 286 286 286 287 286 287 287 287 287 286 286 287 287 287 288 289 290 290 291 291 292 293
270 270 270 270 270 270 270 270 270 271 271 270 270 270 270 271 270 271 270 271 270 269 268 269 270 271 271 271 272 273 273 272 272 273 273 273 273 274 274 274 274 277 281 283 283 284 284 284 284 285 285 285 285 286 286 286 286 286 286 285 285 285 285 285 286 286 287 288 289 290 290 291 291 291
270 270 269 270 270 269 269 269 270 270 270 270 270 270 270 270 271 271 271 270 270 269 268 268 270 272 271 272 272 272 272 272 273 273 273 273 274 274 274 275 276 279 281 281 281 282 282 283 283 284 284 285 285 285 285 285 285 285 285 284 283 284 284 285 285 286 286 287 287 288 289 290 290 291
270 269 269 270 269 269 268 268 269 269 269 269 269 269 269 270 270 271 270 271 270 270 269 270 269 271 270 270 272 272 272 272 271 272 273 274 275 274 274 275 276 276 276 276 277 279 280 281 282 283 283 284 284 284 284 284 285 284 283 283 282 283 284 285 285 286 286 286 286 287 288 288 289 289
269 269 269 269 269 269 269 269 268 268 268 269 268 269 269 271 270 270 270 270 270 270 270 270 270 270 271 272 270 273 274 274 273 272 272 272 274 274 274 274 276 277 277 278 280 280 280 281 280 281 282 283 283 283 283 283 283 282 282 282 282 283 284 285 285 285 286 286 286 286 287 287 288 289
269 269 269 269 269 269 269 269 269 269 269 269 269 270 270 269 270 268 269 269 270 269 269 270 270 271 271 271 273 274 274 273 273 274 273 271 272 273 274 275 274 275 276 275 275 277 278 277 278 279 279 280 281 281 281 281 281 280 281 282 283 283 284 284 285 285 285 285 285 286 286 286 286 288
268 268 268 269 269 270 274 276 276 275 275 271 267 269 269 268 268 268 267 268 269 270 270 270 271 271 271 271 272 272 272 271 271 272 273 272 273 273 272 273 274 274 273 273 273 273 273 273 273 273 273 274 277 277 279 279 279 280 281 282 283 283 284 284 284 284 284 285 285 285 285 285 286 286
269 268 268 269 274 274 274 274 274 275 275 276 274 270 269 268 267 268 268 269 269 270 270 270 271 270 270 272 272 272 272 272 273 272 272 270 271 271 270 271 272 273 272 271 269 271 273 272 272 272 272 274 275 275 275 275 277 280 282 282 283 283 283 283 284 284 284 284 284 284 284 284 285 285
270 269 269 268 271 272 272 271 273 274 275 274 275 275 276 275 273 271 270 271 272 271 270 271 271 271 271 272 272 271 271 272 272 271 271 270 269 268 266 265 269 273 271 269 268 269 271 272 271 272 273 274 274 275 275 279 280 280 282 282 282 282 282 283 283 283 283 283 283 284 284 284 284 285
270 270 269 269 269 268 268 269 270 271 272 273 274 275 275 275 276 277 275 273 272 272 271 271 272 271 271 270 271 271 271 270 270 270 269 269 268 267 266 267 266 270 271 268 267 268 272 273 272 272 273 274 275 275 278 280 280 281 282 281 281 282 282 282 282 282 283 283 283 283 283 284 284 284
270 270 269 268 269 268 271 270 268 267 267 271 274 274 275 276 277 277 278 278 276 275 273 272 271 271 271 270 270 271 271 271 269 268 268 268 268 267 267 266 267 268 270 269 268 267 269 271 270 270 271 272 272 272 275 278 280 280 281 281 281 281 281 281 282 282 282 282 283 283 283 284 284 284
271 270 269 267 267 267 267 267 268 268 267 267 268 269 269 270 273 276 277 277 277 276 274 272 270 271 272 270 270 271 272 269 268 267 266 267 267 266 266 267 267 269 270 267 266 264 266 269 268 267 269 271 271 271 275 278 279 279 280 280 280 280 281 281 281 281 282 282 282 283 283 283 283 283
271 270 268 267 267 267 267 268 269 267 268 268 269 270 270 271 272 273 273 274 275 274 273 272 272 272 272 271 271 271 271 270 269 269 268 268 267 267 267 266 266 267 268 267 265 262 266 268 266 266 268 269 270 271 274 276 277 278 279 279 280 280 280 281 281 281 281 282 282 282 282 283 283 283
270 268 268 267 267 267 267 270 274 274 273 272 271 271 272 273 273 274 276 277 276 275 274 273 272 272 272 274 272 272 271 270 270 270 268 266 265 263 262 261 263 263 266 267 266 264 264 266 266 266 268 269 268 269 269 274 277 278 279 279 279 280 280 280 281 281 281 281 282 282 282 282 283 283
269 268 268 268 267 267 267 271 274 275 276 274 273 273 272 272 271 272 273 274 275 275 275 274 274 274 274 274 274 273 273 272 271 266 263 261 262 262 260 261 262 262 265 266 266 264 263 266 266 266 267 267 267 268 269 270 275 277 278 278 278 279 280 280 281 281 281 281 281 282 282 282 282 282
268 268 271 270 268 268 268 273 275 276 275 274 274 273 271 270 269 270 270 267 269 272 271 271 271 271 271 271 271 270 271 272 271 264 260 263 264 262 262 260 261 262 264 265 267 264 264 266 267 265 266 267 267 268 269 270 271 274 275 276 278 278 279 280 280 280 280 280 281 281 282 282 282 280
267 267 270 272 272 270 270 274 275 276 276 275 274 272 270 269 268 268 268 266 266 267 266 264 263 263 266 265 264 265 269 270 269 266 265 265 263 262 262 262 261 260 261 265 268 264 264 265 265 265 263 262 265 267 268 268 269 270 271 272 273 277 278 278 278 279 279 280 280 281 281 282 281 279
265 266 266 270 274 275 276 276 277 277 278 276 272 270 269 268 268 268 266 267 268 265 263 261 260 262 263 263 263 263 264 265 265 266 266 265 264 262 262 262 262 260 261 265 268 265 265 265 263 266 264 261 260 264 267 268 269 269 270 271 271 274 275 274 274 276 278 279 280 280 281 281 281 278
265 264 266 265 271 274 275 276 277 277 278 278 272 271 268 269 271 268 265 265 267 261 258 257 258 259 259 260 261 262 263 263 264 265 266 265 265 264 262 262 262 262 263 266 270 266 263 264 263 264 264 264 264 263 265 266 268 268 270 270 269 269 270 270 272 272 275 277 279 280 280 281 282 280
265 265 266 266 270 274 275 276 277 277 278 278 272 271 275 276 274 266 265 262 258 256 255 255 256 255 256 257 258 260 261 262 263 264 264 265 265 265 265 263 262 261 262 266 270 265 263 262 263 263 263 263 263 264 263 264 266 267 269 269 269 269 270 270 271 271 272 273 273 276 278 281 281 282
266 267 267 268 272 274 275 276 277 277 278 277 272 275 275 275 272 267 261 260 255 254 255 255 255 256 256 256 258 259 260 262 263 264 264 264 265 265 265 266 266 264 265 265 266 265 264 262 264 263 262 263 262 263 263 262 263 267 267 267 268 269 270 270 270 271 272 273 274 278 279 279 280 281
268 267 268 269 273 275 275 276 277 277 278 274 274 275 275 272 269 260 257 256 255 256 255 254 254 255 256 257 258 259 260 262 263 263 264 264 264 264 264 265 265 265 265 265 265 265 264 262 263 264 264 263 262 261 260 264 264 265 264 267 268 268 269 270 270 272 273 274 274 274 273 273 275 275
269 271 273 274 275 275 276 277 277 276 274 273 273 273 272 268 257 254 254 254 253 253 254 255 256 255 257 258 260 261 262 262 263 262 262 262 262 262 262 263 262 263 264 264 265 265 264 264 263 264 264 263 262 262 262 262 263 263 265 265 265 267 269 271 271 271 272 273 273 273 273 273 274 275
274 275 275 276 276 276 276 274 270 267 268 271 272 271 268 256 254 253 252 253 253 254 254 255 256 256 257 258 260 261 261 259 259 259 259 259 260 259 260 260 259 257 260 262 264 264 265 264 264 264 262 263 263 262 262 262 262 263 264 264 266 268 270 270 270 271 272 272 273 273 274 274 274 275
274 275 275 274 276 274 275 272 271 270 270 264 262 259 257 253 254 254 254 253 254 255 255 255 256 256 257 258 258 257 257 257 258 259 259 258 259 259 259 258 258 259 258 258 262 264 265 265 264 264 262 262 262 262 262 262 261 262 263 265 266 264 267 269 270 271 272 272 273 274 274 274 274 275
273 272 274 274 268 268 266 264 260 258 257 257 257 255 253 254 255 259 263 263 259 258 256 255 255 255 255 254 255 256 256 256 257 258 257 257 259 258 258 257 258 258 259 259 258 261 264 264 263 263 263 262 261 261 262 261 261 261 262 265 266 267 267 268 269 270 272 272 272 272 272 272 272 274
270 269 267 265 264 264 264 263 260 257 254 254 254 254 252 251 250 252 252 252 254 253 253 254 254 255 253 254 255 256 257 257 258 259 257 257 256 258 256 255 257 257 257 259 260 261 261 262 263 263 263 263 263 262 261 260 261 263 262 264 265 265 267 268 269 269 271 271 270 269 269 270 272 273
268 267 266 265 265 265 264 263 262 260 256 255 254 252 259 256 252 253 253 252 254 254 253 254 253 254 254 255 256 257 258 259 257 259 262 258 255 255 256 256 256 257 258 258 259 259 260 261 261 262 262 262 262 263 262 261 261 262 263 264 265 265 267 268 269 269 270 270 268 266 267 268 271 273
268 266 265 265 265 265 265 265 264 263 259 258 255 255 253 253 255 257 254 253 253 254 253 254 253 253 255 256 257 257 258 258 259 258 256 254 255 254 255 255 256 257 257 258 258 259 259 259 260 260 260 260 257 255 264 261 259 263 264 265 266 266 266 267 267 269 270 268 267 265 266 268 270 273
269 268 266 266 266 265 265 264 264 263 261 260 258 256 253 254 253 254 254 255 253 253 252 252 253 253 255 256 257 258 258 259 259 258 257 255 254 255 254 255 257 257 257 257 258 258 259 258 258 258 257 258 258 257 256 265 268 265 264 264 265 266 266 266 267 269 268 266 266 266 266 267 269 272
268 268 268 267 267 266 265 265 263 262 261 259 257 256 254 255 253 255 256 257 255 253 254 253 254 255 255 255 257 258 258 258 257 258 257 256 254 254 255 256 257 257 257 257 257 258 257 257 258 258 258 257 257 256 258 262 266 269 265 264 265 266 266 266 267 267 266 266 266 267 267 268 269 272
269 269 268 267 267 266 265 264 262 261 259 257 256 254 254 256 255 254 252 253 253 252 253 253 253 253 253 255 255 256 256 257 258 257 257 256 255 254 255 256 257 257 257 257 257 257 257 255 256 257 258 257 256 257 257 260 261 263 268 267 265 265 266 266 266 265 265 266 266 267 268 268 270 272
271 269 267 266 266 265 263 262 261 260 259 256 254 255 255 253 254 254 252 252 253 252 251 251 251 252 254 252 254 256 255 255 255 256 256 256 255 255 256 257 257 258 258 257 257 257 256 254 255 256 258 258 257 258 259 259 259 262 265 270 267 265 265 266 264 265 265 264 266 268 268 270 273 275
270 269 267 266 265 264 263 262 260 260 258 257 256 254 253 255 254 252 251 252 251 251 251 252 253 255 254 255 253 251 253 254 255 255 256 256 256 257 257 258 259 259 258 257 256 256 256 256 256 257 259 260 260 261 261 261 262 263 263 265 269 267 266 265 264 264 264 265 266 267 267 269 267 269
265 265 265 265 265 263 262 261 260 258 257 257 254 256 255 253 253 252 251 251 252 251 250 251 251 250 252 251 250 251 252 254 254 254 255 255 257 257 258 259 258 258 257 256 256 256 256 257 259 263 261 260 260 260 259 258 258 259 260 261 266 268 269 269 266 265 265 266 266 266 266 266 266 266
266 265 264 263 263 262 261 260 259 257 257 255 254 254 253 253 253 256 256 257 254 252 252 251 250 251 251 250 249 252 253 253 253 254 255 254 254 256 257 256 255 256 256 255 256 256 258 259 259 259 258 257 257 257 257 257 257 258 258 259 261 265 267 268 269 269 268 267 266 265 265 266 266 265
265 266 265 263 261 261 260 259 258 257 256 254 254 253 252 252 250 253 251 252 252 250 251 251 250 249 250 249 249 250 251 252 253 253 254 255 255 256 256 254 255 256 256 256 257 257 257 257 257 257 257 254 255 256 256 257 257 257 257 257 259 260 261 265 266 268 268 269 270 269 267 266 265 263
266 265 264 264 261 260 259 258 257 256 255 255 254 252 252 252 252 252 251 251 251 251 250 250 249 249 250 250 249 248 251 252 252 253 254 256 257 255 254 255 256 256 256 256 255 255 256 256 256 257 255 255 255 254 255 256 256 257 257 257 258 257 258 260 261 263 265 266 269 270 271 271 270 270
264 264 263 262 261 260 259 258 257 255 254 253 253 253 252 251 252 252 250 250 250 250 250 249 249 249 249 249 248 250 251 254 255 255 255 255 254 255 255 255 255 254 254 255 254 255 255 255 256 255 253 255 254 254 256 256 256 256 256 256 255 256 257 258 257 257 258 259 264 269 269 270 270 270
Wind_Speed
5 5 5 5 5 3 3 3 4 3 3 2 2 1 4 3 1 3 5 5 1 3 1 0 2 4 7 6 6 7 6 10 13 9 10 11 10 17 23 24 23 23 23 23 23 23 24 24 24 24 24 24 24 25 25 26 26 25 26 27 27 27 27 27 27 27 27 27 27 26 26 27 27 26
5 5 5 4 5 3 4 4 3 3 2 3 3 3 1 2 3 2 2 7 2 3 3 1 3 5 6 6 7 6 5 11 13 8 9 10 10 21 24 23 23 23 24 24 23 24 24 24 24 24 25 25 25 26 25 25 26 26 26 26 27 27 27 26 27 27 27 27 27 27 27 27 27 27
5 5 5 4 4 3 3 3 3 2 3 3 3 2 3 3 2 2 1 3 5 4 2 1 3 5 4 6 7 5 5 8 12 9 8 8 16 22 17 22 23 24 24 24 24 24 24 24 25 25 25 25 26 26 26 26 26 26 26 26 26 27 27 27 27 27 27 27 27 27 27 27 28 27
5 5 5 3 3 2 3 3 3 3 2 2 3 3 4 3 2 2 1 3 12 2 3 5 3 4 7 6 7 7 5 6 12 7 8 11 16 10 9 16 22 23 24 24 24 25 25 25 26 27 26 26 27 26 26 26 26 25 25 26 26 26 27 28 28 27 27 27 27 26 27 27 27 27
4 4 5 3 2 2 3 3 3 3 2 3 3 3 3 3 2 3 1 3 10 10 1 3 6 6 8 7 5 8 8 8 7 8 7 9 9 9 9 9 16 21 24 25 25 25 25 26 26 26 26 27 27 26 26 25 25 25 25 26 27 27 27 27 28 28 27 27 27 26 26 26 26 26
3 3 4 3 3 2 3 3 3 2 2 2 2 1 3 1 2 2 1 3 5 13 11 6 4 5 5 9 5 8 11 11 9 10 9 7 7 8 9 9 9 19 22 25 25 25 26 27 27 27 26 26 26 26 26 25 25 25 25 26 27 27 27 26 27 27 27 26 26 26 26 26 26 26
3 3 3 3 3 2 3 2 1 1 1 0 1 1 0 1 0 1 2 2 6 9 13 7 8 8 8 7 9 9 9 9 9 10 10 9 8 7 8 10 9 16 23 26 26 26 27 27 27 27 27 26 25 25 26 26 25 25 26 27 27 28 27 26 26 26 26 26 26 26 26 26 26 26
3 3 3 2 2 2 2 1 1 0 0 0 1 1 1 0 2 2 2 4 5 7 11 10 8 9 10 8 7 8 8 10 10 9 10 9 9 9 8 9 9 13 24 26 27 27 27 27 26 26 26 25 25 26 26 26 26 26 27 27 28 27 26 25 25 25 25 26 26 25 25 25 25 25
3 3 3 2 1 1 2 0 1 1 0 1 1 1 2 1 2 2 3 4 4 6 9 11 7 7 7 8 8 6 11 12 11 10 9 10 11 10 8 8 9 17 24 25 25 24 25 25 24 24 25 25 26 27 27 27 28 28 28 28 28 26 26 25 25 25 25 25 25 25 25 25 24 24
3 3 2 1 2 2 1 1 1 1 1 1 1 2 2 2 2 3 3 4 5 5 7 8 11 8 9 9 9 9 8 11 12 13 13 11 9 9 10 11 10 9 9 9 11 14 17 20 24 24 24 26 28 28 29 28 28 28 27 27 26 25 25 25 25 25 25 25 25 24 24 24 24 24
3 3 2 1 2 2 2 1 2 2 2 2 2 2 2 2 2 3 4 3 4 6 8 8 8 10 8 9 12 11 10 11 11 11 12 15 12 8 11 16 12 9 11 15 19 18 19 21 19 24 29 30 30 30 29 28 27 25 26 26 25 24 24 25 25 24 24 24 24 23 23 23 23 23
2 2 2 2 2 2 1 2 3 3 3 2 2 2 1 2 2 3 3 3 4 6 7 7 9 8 10 9 8 10 11 10 9 10 12 15 17 17 13 10 14 15 13 13 12 13 15 16 21 25 25 27 27 27 24 24 24 24 24 24 24 25 25 25 24 24 23 23 23 23 24 23 23 24
2 1 1 1 1 2 4 5 4 4 3 3 1 2 1 2 2 2 3 3 5 6 7 8 7 9 9 8 10 11 10 12 14 14 12 13 15 13 16 15 12 12 14 14 12 10 10 13 12 12 12 12 19 17 22 19 21 22 22 23 25 25 25 24 24 23 22 23 23 23 23 23 23 24
2 2 1 1 3 3 3 3 4 4 4 4 1 2 3 3 2 3 3 5 6 7 7 7 7 8 8 10 10 10 13 14 14 14 13 14 14 15 15 14 7 10 11 12 15 11 8 10 12 10 11 11 12 10 10 9 14 20 25 26 25 24 23 23 22 22 22 23 23 23 23 23 23 22
3 2 2 2 2 2 2 2 4 3 4 4 5 5 5 4 3 3 5 6 6 6 7 7 7 7 10 11 11 12 13 12 11 12 12 13 14 13 13 16 14 6 13 15 14 15 12 11 12 11 10 10 10 10 10 18 22 26 26 24 23 23 23 22 22 22 23 23 22 22 21 21 21 21
4 3 3 3 3 2 2 3 2 2 4 4 4 5 5 6 8 9 6 6 6 6 7 6 6 8 10 12 12 11 10 11 12 12 11 12 12 14 13 12 14 13 14 15 15 15 12 12 12 12 12 13 11 12 19 27 27 26 24 24 25 24 23 23 23 23 22 22 22 22 21 21 21 21
4 4 4 3 2 2 5 2 0 1 2 5 6 5 7 9 10 10 11 13 9 6 6 7 8 7 11 11 10 9 11 13 13 13 12 11 12 11 12 13 14 16 14 14 13 15 14 13 13 14 14 14 13 14 18 25 25 26 26 26 25 24 23 24 24 22 22 22 21 21 21 21 21 21
5 4 4 3 3 2 2 3 3 2 3 3 4 5 5 6 9 12 15 15 13 10 6 6 8 8 6 7 9 10 11 13 12 12 12 12 11 12 13 15 15 13 12 12 13 13 11 11 12 13 13 12 13 12 18 25 26 25 25 24 24 24 24 23 22 22 22 21 21 21 21 21 21 21
5 4 4 3 4 3 3 4 4 4 4 4 5 6 7 6 7 7 8 7 5 5 4 5 5 5 6 7 9 10 10 10 10 10 11 11 10 11 11 10 9 9 8 11 11 11 12 10 12 13 13 14 14 12 17 24 25 24 24 24 24 24 23 23 22 22 21 21 21 21 21 20 20 20
3 3 4 4 4 4 4 7 8 6 5 6 7 8 8 6 6 5 4 6 8 8 8 5 4 5 8 13 11 11 10 9 8 7 6 5 5 8 9 9 8 7 7 9 10 10 12 10 12 14 14 14 15 14 11 18 22 22 24 24 23 23 23 22 22 22 22 21 21 21 20 20 20 20
4 4 5 5 5 5 5 8 8 8 8 5 8 7 5 3 1 1 3 5 6 7 7 8 11 13 15 15 15 13 14 10 9 4 6 5 5 8 9 10 9 10 8 7 7 9 12 10 12 14 14 14 15 14 11 8 16 23 24 23 24 23 22 22 22 21 21 21 21 20 20 20 20 21
5 5 11 9 6 6 6 9 9 9 7 7 7 5 2 1 2 3 1 0 1 3 5 8 10 11 12 12 12 12 12 12 9 4 5 6 6 7 7 10 9 11 8 5 8 10 10 13 11 12 14 14 8 10 9 11 14 18 18 21 22 21 22 23 24 24 24 23 22 21 21 20 19 12
5 5 7 13 10 8 8 11 10 11 10 7 4 3 2 3 3 4 2 1 1 2 4 5 5 6 7 7 5 7 13 12 9 6 5 5 5 7 8 8 9 10 6 5 11 11 11 13 11 11 13 13 10 2 9 12 12 12 12 12 13 20 23 26 26 25 24 23 22 21 21 21 18 10
4 5 5 9 13 13 12 12 13 12 12 6 4 4 3 2 5 2 3 2 1 1 2 4 3 5 6 6 6 5 6 6 5 6 5 4 4 6 7 8 7 8 8 8 12 10 10 9 12 11 9 11 13 14 12 12 12 12 12 12 12 17 22 22 20 24 23 22 23 22 22 21 19 10
6 6 6 5 10 12 12 11 12 13 12 11 5 4 4 4 3 7 3 1 2 1 2 2 3 4 4 5 4 4 5 5 5 4 6 4 4 5 6 7 8 9 10 9 15 9 8 8 10 10 8 8 11 14 14 11 10 10 11 12 13 13 12 12 11 12 16 21 21 23 21 22 22 15
7 7 6 5 9 13 12 12 13 14 12 13 5 5 6 11 2 6 2 3 1 1 2 4 5 5 5 5 5 5 4 5 5 5 5 5 5 5 6 6 8 9 11 11 18 10 9 9 8 9 9 9 12 11 15 13 8 8 9 11 11 12 11 10 10 10 10 9 10 13 18 22 20 21
7 4 6 7 12 12 13 12 14 14 16 7 5 6 7 9 6 5 3 1 2 3 2 3 6 5 5 5 6 6 5 5 5 5 5 5 5 5 6 7 8 9 11 11 10 9 7 9 8 9 11 9 12 14 13 13 13 9 9 9 11 12 10 9 10 9 9 10 10 20 19 19 19 21
6 6 6 7 14 14 13 15 14 15 13 5 7 6 8 2 5 2 1 1 1 1 2 4 5 5 5 4 5 5 5 6 7 7 6 6 6 6 6 7 7 8 9 9 9 8 7 8 9 8 10 11 11 11 14 13 11 11 13 13 10 10 10 10 9 9 10 10 10 9 9 10 10 11
7 9 13 15 15 14 14 15 16 8 6 5 3 3 3 5 2 1 1 1 0 2 5 6 5 5 5 5 6 7 7 7 7 6 5 4 5 6 6 6 6 7 6 6 7 8 8 7 9 9 8 8 9 11 11 13 14 13 13 13 12 11 12 9 9 10 10 10 10 10 9 9 10 10
16 17 16 17 16 15 14 6 3 4 3 4 3 2 6 3 2 2 2 1 3 5 4 4 6 6 4 5 6 6 6 5 6 5 6 6 6 4 6 8 6 3 6 6 8 8 7 7 7 8 9 9 8 10 9 10 11 11 10 10 11 10 7 10 11 10 11 11 12 11 9 8 8 9
12 13 13 9 12 7 9 8 6 5 4 2 3 2 3 2 3 3 4 4 5 3 4 5 5 4 5 5 5 5 4 6 6 5 5 6 6 6 6 6 8 8 5 4 6 6 7 8 8 8 9 10 10 9 9 8 10 10 10 8 9 10 12 11 11 11 12 12 11 10 9 9 9 8
6 6 6 8 1 3 3 4 3 1 1 2 3 2 1 2 3 5 6 5 2 3 3 4 3 4 4 5 5 5 5 5 6 5 5 4 6 5 5 6 8 9 10 5 3 4 5 6 8 8 7 9 11 12 8 7 8 9 9 8 9 9 9 9 11 11 13 13 10 9 10 10 11 10
4 5 5 4 4 6 6 6 5 3 2 1 0 1 2 2 3 2 1 3 5 4 1 4 5 5 5 5 4 5 6 6 5 5 5 5 4 6 2 4 5 7 10 13 11 7 5 6 6 8 9 9 10 10 8 8 7 7 7 9 9 10 9 9 10 12 14 11 10 9 10 9 9 9
6 6 6 7 7 7 7 7 7 7 6 5 3 4 4 5 4 4 4 4 5 3 3 4 4 5 4 5 5 5 5 7 5 5 6 5 3 3 5 7 6 5 5 8 10 11 10 9 8 8 7 7 8 9 7 5 8 7 7 8 8 10 10 9 10 11 9 8 9 12 11 9 9 8
9 8 8 8 8 8 8 8 8 7 7 7 4 6 4 3 5 5 4 6 5 4 4 4 4 4 4 5 4 5 5 6 6 5 3 3 4 5 5 5 7 7 6 7 9 9 9 10 11 12 9 6 5 4 7 3 2 8 8 8 8 10 10 11 10 11 11 9 8 9 9 9 10 9
9 9 9 8 9 8 8 8 6 6 6 6 6 4 2 5 5 6 7 5 5 4 4 5 5 4 4 5 5 5 6 6 6 6 6 5 5 5 5 5 5 6 5 6 8 9 8 8 8 10 12 12 11 10 1 2 9 7 9 9 9 9 10 11 11 9 8 9 9 9 8 9 10 11
10 8 9 9 8 8 9 8 7 7 7 7 6 5 6 6 5 6 6 3 5 5 6 4 5 5 5 5 6 6 6 5 6 6 6 5 6 5 5 6 6 5 5 6 5 7 6 7 7 7 9 10 10 11 12 7 13 12 4 10 10 8 10 11 10 9 7 8 9 9 9 10 10 10
11 9 9 9 8 8 8 7 7 7 6 6 5 5 5 6 4 5 3 3 5 5 5 5 4 4 5 5 4 5 4 5 5 6 7 6 6 6 5 6 7 6 6 6 5 6 6 5 5 6 5 8 10 11 15 13 10 11 13 13 10 10 10 11 9 9 11 7 7 9 10 9 10 9
9 8 10 9 8 7 8 7 7 8 7 6 6 6 6 5 5 5 4 6 5 5 5 5 5 5 5 5 6 5 5 5 6 6 6 6 5 6 6 6 7 6 5 7 6 6 6 5 5 4 5 6 8 10 9 13 14 12 16 20 11 10 9 8 9 9 9 10 9 9 8 8 10 15
10 8 8 8 7 7 7 6 6 6 7 7 6 5 6 6 6 6 6 6 6 4 5 6 5 5 5 6 5 4 5 6 7 6 6 6 6 6 6 6 7 7 7 7 7 7 6 7 5 5 7 7 9 10 10 11 11 10 9 11 16 13 10 9 9 9 10 10 10 10 9 9 9 8
5 6 5 5 6 6 7 7 7 6 6 5 5 4 5 5 6 6 5 6 6 5 5 5 5 5 6 5 4 4 5 6 5 6 5 5 7 7 8 8 6 5 6 8 7 7 7 7 8 16 13 8 8 8 7 6 8 8 10 12 16 19 18 15 10 9 8 10 8 8 9 9 9 8
6 6 5 5 6 6 6 6 6 6 5 5 5 5 4 5 6 7 6 7 6 5 6 5 6 5 5 6 5 5 6 6 6 6 6 5 6 6 8 5 6 5 5 8 8 8 8 8 9 8 7 6 5 6 7 8 10 10 9 10 11 14 17 18 19 16 10 8 8 9 9 8 7 7
6 6 6 5 5 5 6 6 5 5 5 5 5 5 5 5 5 6 6 6 6 5 6 6 5 5 5 5 5 5 5 6 6 6 6 6 6 7 6 5 4 6 7 8 8 7 8 8 7 7 7 4 3 3 6 8 8 9 9 9 11 11 12 14 15 17 16 15 13 11 9 8 8 9
6 7 6 6 6 6 6 6 5 5 5 5 6 5 6 6 6 7 6 6 6 6 6 5 5 5 6 6 5 5 5 6 5 6 7 7 6 5 4 6 6 6 6 7 8 7 7 7 7 6 6 6 4 4 7 7 9 9 8 8 8 9 11 11 11 11 11 12 15 18 19 16 13 13
5 5 5 5 5 5 5 5 6 5 5 5 5 5 6 5 6 6 6 6 6 6 5 5 5 5 5 6 5 6 6 6 6 7 6 5 5 6 5 6 6 6 7 7 7 8 6 7 7 6 4 5 3 4 7 6 8 9 9 8 9 8 8 9 10 11 11 10 12 19 19 18 17 17
Wind_Direction
98 90 90 98 100 88 79 74 78 79 73 77 81 111 141 150 130 321 320 290 217 305 86 238 291 50 23 7 358 344 340 334 336 336 332 325 322 321 327 329 328 327 326 325 325 323 322 321 320 319 318 317 316 314 314 313 312 310 310 311 312 313 312 311 309 309 310 309 308 307 306 304 302 300
98 99 87 89 90 85 81 81 73 75 80 74 67 73 26 143 141 212 301 292 227 256 326 131 281 354 5 357 337 336 330 328 332 329 324 321 316 321 327 325 324 323 324 324 323 321 320 319 318 317 316 314 313 312 313 313 311 309 309 312 313 312 311 312 312 310 308 307 305 305 303 302 302 302
105 102 96 90 92 91 92 85 67 62 67 54 63 52 64 38 124 159 156 315 289 130 255 288 13 325 354 340 321 317 318 321 328 323 316 313 316 322 318 319 320 320 321 322 321 320 319 317 315 315 314 313 312 313 312 311 310 311 313 313 313 313 314 314 313 309 308 307 306 304 304 304 302 300
103 102 98 99 104 102 93 81 75 63 44 63 55 52 71 59 69 96 126 229 278 317 319 307 315 339 329 327 314 316 315 315 319 310 311 309 313 311 306 309 313 315 317 318 319 319 317 316 315 314 313 312 312 311 311 311 310 311 312 314 314 315 315 314 311 310 309 308 307 305 303 302 300 298
99 104 106 106 102 108 92 86 76 57 51 50 41 68 73 58 40 76 34 277 288 299 140 11 322 333 321 317 319 316 318 318 314 311 302 301 303 303 300 300 301 307 311 315 316 315 315 316 316 315 314 313 311 310 312 311 311 312 313 315 316 315 314 313 311 310 310 308 305 303 301 300 300 298
105 114 109 100 92 92 89 87 56 82 47 64 50 30 115 74 88 339 97 281 278 294 309 320 320 316 319 311 326 325 322 319 317 313 310 298 292 297 296 295 293 298 306 311 311 312 313 315 315 315 314 313 313 313 310 310 310 311 314 316 316 315 315 313 310 310 309 306 305 304 302 302 302 303
120 105 105 98 85 75 68 70 64 94 82 106 163 261 205 135 272 240 251 266 285 294 299 320 326 328 323 319 322 322 313 305 306 307 309 309 302 290 288 290 289 295 304 309 310 311 312 313 312 312 312 312 311 310 310 310 309 310 314 316 317 316 314 312 309 308 307 306 305 304 303 303 302 302
114 121 100 96 92 89 87 89 113 210 167 190 229 204 273 182 236 255 221 249 266 288 298 313 327 318 319 317 316 310 300 307 310 306 304 298 296 292 287 286 292 294 304 310 310 311 311 311 310 310 310 309 309 310 310 309 308 310 313 315 316 315 312 309 307 306 306 306 305 305 305 303 301 299
122 113 126 127 109 112 117 285 152 222 205 252 187 240 259 238 254 246 252 250 257 278 286 297 305 309 303 305 307 312 318 317 313 309 300 302 303 302 292 287 293 298 308 310 310 311 311 311 310 308 309 309 310 310 310 309 309 310 312 314 315 312 308 305 305 306 306 306 306 306 305 304 303 301
131 132 130 148 145 147 151 196 225 214 238 262 245 250 260 255 251 244 257 262 259 266 282 297 310 319 320 317 314 317 311 311 313 313 310 310 312 314 312 308 307 304 302 304 304 309 311 309 310 312 311 309 308 308 308 308 308 310 312 312 311 307 304 305 307 308 309 308 307 306 305 303 301 298
132 132 139 166 173 169 180 186 214 231 257 224 238 236 229 255 237 257 260 271 289 297 301 297 294 302 304 311 312 317 310 303 302 305 320 322 320 313 316 316 317 315 305 302 306 311 314 314 314 312 311 310 309 308 307 307 308 309 309 309 306 304 306 308 309 310 311 310 308 306 305 305 306 310
143 150 168 176 204 182 204 193 236 220 224 229 208 248 205 246 239 256 269 286 290 290 286 289 295 296 303 304 293 301 307 305 317 333 326 318 321 321 323 321 323 321 311 312 316 320 322 320 315 312 311 309 307 307 308 308 308 309 308 305 304 307 309 309 311 312 312 312 313 315 313 312 313 313
157 179 187 198 211 226 232 248 255 244 238 181 185 282 191 215 237 257 282 279 280 277 283 285 281 290 291 292 298 307 322 332 326 325 324 316 320 324 317 314 318 313 314 313 320 326 326 314 310 309 304 304 310 308 308 307 304 303 303 306 310 310 309 311 312 312 313 317 319 318 316 314 313 313
195 193 200 223 236 247 263 285 291 294 300 296 271 201 202 218 221 251 254 261 263 276 283 284 289 291 291 306 316 323 325 321 320 323 329 322 321 317 312 306 319 327 320 325 318 318 315 304 301 298 299 301 307 300 301 293 302 309 313 312 310 310 313 314 313 313 316 318 318 316 315 314 312 310
209 217 201 194 237 250 303 309 290 295 304 307 295 294 291 279 243 218 257 264 262 267 274 288 289 290 306 320 329 322 319 323 330 326 322 320 320 322 324 319 318 344 340 325 318 312 312 304 300 303 301 303 304 303 296 311 319 316 311 311 315 317 317 316 316 317 317 316 315 315 313 311 309 309
201 205 205 203 186 178 213 228 240 299 301 294 289 289 286 283 279 276 267 276 286 287 287 292 309 322 316 316 319 321 332 328 323 322 321 319 320 318 316 312 311 323 335 319 307 302 314 320 316 321 324 320 316 318 321 320 315 312 316 318 318 317 318 319 319 317 316 316 316 315 312 311 311 312
205 200 200 197 192 202 248 268 233 217 262 291 292 282 283 282 281 283 291 295 294 302 313 321 321 320 314 313 319 331 327 326 317 317 315 318 316 314 311 311 313 318 325 315 316 314 318 327 328 320 319 317 318 318 316 313 315 318 318 317 317 317 319 319 317 316 316 316 314 313 314 315 314 313
211 203 200 202 221 224 224 220 223 217 223 241 267 271 266 259 270 277 281 287 294 302 313 319 305 319 337 321 317 322 323 317 312 314 312 314 316 319 311 312 310 314 330 335 325 307 313 330 328 316 312 316 313 311 311 316 318 316 317 317 317 318 317 317 316 316 316 314 314 316 317 316 313 311
213 194 189 196 220 226 229 219 216 209 224 232 237 243 250 252 251 246 257 262 266 299 312 299 321 327 325 314 312 312 314 312 308 304 307 324 320 313 316 305 307 316 332 328 319 302 312 333 320 311 315 316 313 312 315 314 314 316 317 318 318 319 320 319 319 318 317 317 318 319 317 315 315 314
199 197 201 209 223 231 230 248 251 247 227 223 233 241 250 239 236 233 236 286 308 311 304 312 323 317 309 310 310 313 315 315 310 316 325 316 317 322 314 314 318 309 320 318 311 307 309 321 314 313 314 314 311 312 306 310 315 319 321 321 322 322 322 322 321 320 321 323 322 320 319 319 318 319
207 211 210 210 213 222 231 248 256 255 260 257 255 254 241 235 171 240 285 308 314 315 312 317 320 317 317 313 313 317 321 317 326 342 328 318 323 319 318 313 319 314 324 311 311 310 303 318 323 316 315 317 310 308 309 308 323 324 323 325 323 322 323 323 325 328 329 328 326 324 324 322 322 322
224 211 223 221 208 219 229 248 253 256 260 261 256 242 200 207 228 256 222 24 310 318 335 328 325 318 312 317 320 321 321 324 333 345 316 310 319 309 309 307 314 310 313 296 327 313 303 317 324 320 314 307 295 302 310 326 322 322 323 322 324 325 327 330 332 330 328 327 326 326 326 326 326 324
207 228 232 232 224 211 224 244 250 255 253 248 231 157 170 245 242 249 185 191 219 292 315 317 330 312 315 315 306 301 316 324 331 316 307 316 319 310 308 308 310 313 304 315 334 315 313 325 324 333 324 318 308 274 326 322 323 324 320 322 326 330 333 332 328 326 324 324 325 327 329 329 329 325
226 222 231 240 236 234 239 245 250 252 252 245 142 148 173 217 270 178 165 193 198 242 264 278 281 284 293 298 303 300 299 303 299 307 312 304 305 297 302 303 302 290 293 311 323 317 307 318 315 327 320 318 317 322 322 319 324 321 323 326 328 328 328 324 320 319 320 324 326 328 329 328 330 331
210 225 228 228 239 238 239 244 247 251 249 249 161 173 169 199 260 127 118 243 356 206 249 281 296 294 299 294 296 296 293 293 289 285 304 289 285 292 294 299 296 290 290 296 318 321 310 316 305 316 310 299 289 305 310 313 315 317 323 328 324 320 317 314 312 311 315 321 323 326 325 327 331 331
212 208 215 223 233 234 238 240 245 246 244 245 150 209 248 287 318 120 131 164 158 14 354 326 309 301 302 301 302 296 289 284 288 287 283 292 287 278 275 282 291 294 298 308 317 311 304 303 314 312 308 310 304 306 310 311 310 314 322 314 309 308 313 311 311 312 315 314 314 320 324 328 329 330
207 198 212 228 236 233 235 239 239 246 244 238 157 237 270 286 112 110 128 103 40 358 330 310 294 289 292 298 297 300 296 292 292 290 290 286 283 279 271 273 278 282 289 297 298 297 294 292 303 305 307 308 305 309 304 307 316 327 312 315 314 315 315 315 314 314 316 317 314 321 325 325 329 330
193 198 211 218 233 236 235 238 241 242 245 160 219 247 275 122 111 85 87 52 53 23 303 283 284 281 279 280 284 285 288 294 299 295 291 287 285 283 282 282 281 275 281 283 287 290 289 288 294 295 301 307 306 307 307 304 303 314 317 316 312 310 315 316 314 317 320 319 316 322 325 327 327 327
197 208 216 224 231 235 236 235 244 239 178 194 197 234 227 120 89 109 125 169 116 274 267 264 265 273 266 263 270 283 295 297 298 292 288 283 275 276 275 275 276 279 277 283 284 287 290 287 295 299 299 297 294 294 297 297 309 312 316 316 317 323 318 317 323 322 321 322 327 325 325 323 320 320
203 215 223 225 230 233 237 236 133 141 213 194 183 160 114 113 128 134 146 181 192 237 252 257 263 267 280 282 282 288 293 296 292 300 301 312 304 309 317 320 299 257 261 276 278 284 287 294 298 304 300 295 290 289 291 298 302 302 307 308 299 297 308 325 322 320 320 327 329 323 321 320 314 316
205 213 216 217 226 212 202 180 184 150 156 102 95 95 112 129 149 176 181 191 209 226 241 261 264 267 273 288 301 298 301 296 291 290 295 302 301 318 322 318 308 321 285 254 272 276 295 304 306 307 305 302 297 282 286 288 290 298 303 305 312 319 322 324 326 328 329 325 317 318 329 326 321 314
185 173 206 209 195 139 117 99 42 75 76 158 162 133 125 155 178 208 222 224 185 224 221 252 276 286 289 291 289 296 293 281 284 288 292 290 300 314 325 332 326 320 317 300 270 277 290 302 308 305 294 292 292 297 302 291 285 288 296 304 310 308 314 321 328 331 333 331 326 332 334 328 321 319
152 161 186 188 193 194 201 214 206 209 223 259 200 173 203 227 223 222 160 234 247 230 215 254 259 272 287 287 287 289 289 280 282 295 296 280 280 305 310 298 295 320 323 322 327 322 316 309 301 300 294 286 277 277 289 301 297 297 305 313 317 317 321 323 325 328 327 329 335 326 321 321 313 311
184 197 200 210 209 214 212 218 222 226 220 227 232 244 221 203 209 217 228 224 232 222 222 235 254 266 277 283 286 285 285 292 285 283 299 300 313 316 320 320 312 299 296 303 312 320 325 323 317 308 287 274 270 272 249 262 287 299 308 313 318 319 319 322 327 321 321 340 336 324 322 318 310 310
196 197 206 213 209 214 213 216 215 213 213 218 215 226 216 212 213 231 220 228 214 219 228 239 240 254 257 270 280 281 286 290 295 295 282 281 301 298 297 308 309 312 315 314 314 318 324 327 332 329 329 322 316 309 276 212 270 313 315 318 322 320 323 328 321 322 331 335 334 320 311 310 313 315
211 197 206 209 211 206 212 219 216 216 216 220 216 217 210 237 216 219 231 221 194 214 218 233 248 246 247 256 269 276 283 290 292 298 301 298 297 294 286 272 281 295 301 303 306 311 320 323 336 336 337 337 341 337 296 328 326 322 320 318 320 321 324 320 316 315 334 332 329 318 308 314 313 313
212 205 205 211 209 201 213 213 210 214 211 209 209 199 213 236 224 207 224 205 192 204 210 218 238 240 249 254 262 270 280 289 291 297 294 295 291 285 295 294 293 290 298 295 295 301 314 320 330 334 332 334 336 324 307 328 326 325 315 322 319 329 326 319 318 323 332 326 317 321 316 311 302 308
209 206 210 213 209 206 207 208 201 209 207 202 205 208 220 229 236 224 200 202 220 214 228 234 247 251 252 249 255 269 268 273 279 285 289 294 295 294 284 291 300 304 296 295 301 300 305 304 314 325 329 326 323 322 320 324 332 321 330 327 321 328 323 320 322 330 325 324 315 316 314 307 310 303
213 202 205 206 206 196 200 200 194 205 201 195 194 207 219 227 231 224 208 215 215 216 218 223 235 236 242 245 244 251 273 284 282 276 281 279 273 276 287 292 296 296 302 305 308 301 308 305 304 314 323 312 311 308 305 307 307 306 310 318 330 322 321 324 323 320 319 324 321 312 298 289 295 321
210 202 197 188 194 191 198 188 195 202 196 199 200 199 202 222 220 219 223 222 216 222 212 223 229 238 238 237 245 259 265 258 263 270 275 280 280 272 267 279 288 300 307 302 304 300 304 298 302 311 308 301 291 289 290 286 281 285 293 308 325 333 325 330 326 321 318 320 317 308 319 331 331 330
175 191 195 181 186 183 194 193 194 187 200 198 196 196 198 207 218 225 221 219 211 214 220 229 229 235 243 244 242 236 255 266 260 265 271 276 279 276 282 294 292 296 296 295 293 294 287 290 296 306 305 290 288 287 290 298 311 315 321 317 324 329 334 336 328 320 315 319 312 318 333 331 326 325
186 195 181 178 188 188 189 193 186 191 197 192 190 200 206 204 217 230 228 232 218 212 217 226 222 224 241 237 236 233 243 257 269 270 266 270 276 281 281 274 277 289 291 285 290 285 288 301 301 300 291 302 313 331 323 316 309 312 315 315 312 321 330 333 335 334 333 326 332 342 338 327 332 327
190 198 199 190 189 185 187 194 192 189 197 183 197 199 197 209 218 229 232 229 225 224 229 238 229 225 239 240 231 227 237 254 257 268 270 269 264 274 279 275 267 281 284 282 284 286 294 296 299 299 300 305 295 304 296 302 301 302 310 318 319 321 319 328 335 336 338 339 351 356 348 341 336 334
191 198 201 188 191 198 195 196 196 193 191 194 200 186 196 202 218 223 220 226 222 227 223 227 231 224 232 233 232 237 236 246 255 260 264 260 262 264 277 288 290 286 283 286 290 290 289 291 287 289 299 299 298 308 300 306 307 309 307 306 311 318 324 328 330 335 341 342 347 356 354 353 348 338
186 192 191 189 193 195 194 192 194 192 191 192 186 192 200 204 220 227 224 219 224 226 224 225 227 228 225 228 221 242 243 246 251 249 256 278 288 284 280 279 287 288 285 283 290 291 290 291 290 287 272 277 282 283 288 290 296 305 309 319 317 318 318 330 335 337 334 325 330 346 349 349 350 349